This is the latest recevied weather packets stored in our database for station/object N9XRG. If no packets are shown the sender has not sent any weather packets the latest 10 day(s).
| Time | Temp. | Humidity | Pressure | Rain* | Wind** | Luminosity | Snow |
|---|---|---|---|---|---|---|---|
| 1777622791 | 6.11° C | 94% | 1012.4 hPa | 1.78 mm | - | 0 W/m² | - |
| 1777622487 | 6.67° C | 94% | 1012.9 hPa | 1.78 mm | - | 0 W/m² | - |
| 1777622183 | 6.67° C | 94% | 1012.8 hPa | 2.29 mm | - | 0 W/m² | - |
| 1777621879 | 6.67° C | 94% | 1012.8 hPa | 3.05 mm | - | 0 W/m² | - |
| 1777621575 | 6.67° C | 94% | 1012.9 hPa | 2.29 mm | - | 0 W/m² | - |
| 1777621272 | 6.67° C | 94% | 1012.9 hPa | 1.78 mm | - | 0 W/m² | - |
| 1777620968 | 6.67° C | 94% | 1012.9 hPa | 2.29 mm | - | 0 W/m² | - |
| 1777620664 | 6.67° C | 93% | 1012.8 hPa | 2.29 mm | - | 0 W/m² | - |
| 1777620360 | 6.67° C | 93% | 1013.2 hPa | 2.29 mm | - | 0 W/m² | - |
| 1777620057 | 6.67° C | 93% | 1012.8 hPa | 1.27 mm | - | 0 W/m² | - |
| 1777619754 | 6.67° C | 93% | 1012.9 hPa | 1.27 mm | - | 0 W/m² | - |
| 1777619448 | 6.67° C | 93% | 1013.2 hPa | 1.27 mm | - | 0 W/m² | - |
| 1777619144 | 6.67° C | 93% | 1012.9 hPa | 1.27 mm | - | 0 W/m² | - |
| 1777618839 | 6.67° C | 93% | 1013.1 hPa | 1.27 mm | - | 0 W/m² | - |
| 1777618538 | 7.22° C | 93% | 1013.1 hPa | 1.78 mm | - | 0 W/m² | - |
| 1777618235 | 7.22° C | 93% | 1013.3 hPa | 1.78 mm | - | 0 W/m² | - |
| 1777617933 | 7.22° C | 93% | 1013.4 hPa | 1.27 mm | - | 0 W/m² | - |
| 1777617628 | 7.22° C | 93% | 1013.5 hPa | 1.27 mm | - | 0 W/m² | - |
| 1777617324 | 7.22° C | 92% | 1013.4 hPa | 1.78 mm | - | 0 W/m² | - |
| 1777617022 | 7.22° C | 92% | 1013.6 hPa | 1.78 mm | - | 0 W/m² | - |
| 1777616722 | 7.78° C | 92% | 1013.6 hPa | 1.27 mm | - | 0 W/m² | - |
| 1777616422 | 7.78° C | 92% | 1013.7 hPa | 0.51 mm | - | 0 W/m² | - |
| 1777616119 | 7.78° C | 92% | 1013.9 hPa | 0 mm | - | 0 W/m² | - |
| 1777615816 | 7.78° C | 93% | 1013.5 hPa | 0 mm | - | 0 W/m² | - |
| 1777615514 | 7.78° C | 93% | 1013.7 hPa | 0 mm | - | 0 W/m² | - |
* Rain latest hour (hover to see other rain measurements)
** Current wind speed in m/s (hover to see current wind gust speed)